Location: *
(46.3500°N, 10.9000°E)
Time: 20:45:51
(UTC+00:00)

A-11 Canister half - Pass Details

Date: 20 April 2021
Orbit: 1526 x 1682 km, 47.3° (Epoch: 13 May)

Event Time Altitude Azimuth Distance (km) Brightness Sun altitude
Rises 15:20:11 0° 243° (WSW) 4,867 12.8 28.2°
Reaches altitude 10° 15:23:18 10° 242° (WSW) 3,898 12.6 27.7°
Maximum altitude 15:33:19 78° 158° (SSE) 1,710 9.7 26.0°
Drops below altitude 10° 15:43:30 10° 75° (ENE) 3,947 10.7 24.3°
Sets 15:46:39 0° 74° (ENE) 4,931 11.1 23.7°
